Location: Peterborough
(44.3091°N, 78.3197°W)
Time: 07:21:29
(UTC-05:00)

A-11 Canister half - Pass Details

Date: 17 December 2023
Orbit: 1512 x 1687 km, 47.2° (Epoch: 25 February)

Event Time Altitude Azimuth Distance (km) Brightness Sun altitude
Exits shadow 04:42:57 28° 210° (SSW) 2,732 10.0 -31.2°
Drops below altitude 10° 04:49:20 10° 172° (S) 3,930 11.2 -30.1°
Sets 04:53:02 0° 162° (SSE) 4,925 11.9 -29.4°
